Theta_e
331 330 324 321 321 322 320 318 317 315 313 313 311 310 311 312 310 311 312 314 319 319 319 319 318 317 316 315 314 313 312 311 310 310 310 310 310 310 310 310 310 310 310
333 329 323 320 321 321 318 316 314 311 309 308 304 304 305 306 306 307 310 308 313 314 315 316 316 315 315 314 312 312 311 310 309 308 308 308 308 308 308 308 308 309 309
332 329 324 322 322 321 317 311 306 304 302 301 300 299 299 299 300 302 305 304 305 309 311 312 312 313 313 312 311 310 309 308 308 307 307 307 307 307 307 307 307 307 307
334 329 327 325 320 318 310 306 303 300 298 298 298 297 296 296 296 296 299 299 301 302 305 307 308 309 310 310 310 309 308 307 306 306 306 305 306 306 306 306 306 306 306
335 330 326 322 318 313 310 303 301 301 297 296 296 296 295 294 294 293 293 294 296 298 299 301 303 304 306 307 308 308 307 306 305 304 304 304 305 305 305 305 305 305 305
333 330 324 318 315 312 306 304 299 299 296 294 293 293 293 293 294 293 291 292 292 293 293 295 298 298 301 304 305 306 306 305 304 303 303 303 304 304 304 304 304 304 304
327 325 320 316 314 311 307 304 296 293 293 294 291 291 291 292 291 292 292 291 290 290 291 292 293 294 295 299 301 303 304 304 303 302 302 302 302 302 303 303 303 303 303
323 321 317 314 312 308 303 297 294 293 292 293 294 292 287 288 289 290 291 290 289 290 289 289 290 291 293 293 295 298 299 301 301 301 301 301 301 301 302 302 303 303 303
316 316 315 313 310 307 302 297 295 296 291 293 296 298 290 290 287 288 289 289 289 289 288 288 288 289 290 291 291 292 294 296 297 298 298 299 299 300 301 301 301 302 301
310 312 313 312 310 308 304 298 298 297 295 293 297 299 299 295 289 283 287 288 289 288 288 287 287 287 288 289 289 289 291 292 293 294 295 296 297 298 299 300 300 300 300
305 307 307 308 307 306 304 300 297 298 297 296 297 296 296 297 298 289 283 284 286 287 288 287 287 286 287 288 288 287 288 290 291 292 292 293 295 296 297 298 299 299 299
300 300 302 304 305 304 302 300 299 300 298 299 299 296 294 292 290 290 287 284 283 285 287 287 286 287 287 286 285 285 285 287 289 290 290 291 292 293 295 296 297 297 298
297 297 298 301 302 303 303 303 300 300 298 299 299 296 295 294 292 291 289 285 284 285 285 287 287 287 286 286 286 283 284 285 287 289 289 290 291 292 293 294 295 295 296
302 299 296 297 300 302 303 302 300 299 298 298 299 295 292 291 290 289 288 284 282 282 283 285 287 287 286 286 284 283 284 285 285 288 289 289 290 291 292 292 293 293 294
304 301 297 295 295 298 300 300 298 297 298 297 296 292 290 289 289 288 288 288 285 280 280 284 283 286 286 286 285 284 284 285 285 287 287 288 288 290 291 291 291 292 293
302 300 296 294 293 295 294 296 294 293 294 293 291 289 288 287 287 287 286 285 286 285 283 284 284 284 285 283 284 282 283 284 285 286 286 286 287 288 289 289 290 291 291
298 294 291 290 290 289 290 291 291 290 290 288 288 287 286 286 285 284 284 284 284 284 284 281 283 284 283 282 282 282 284 283 283 285 286 286 286 287 288 288 288 289 289
292 292 290 288 287 287 288 289 288 288 287 285 286 285 283 283 283 283 284 283 283 283 283 281 281 280 280 283 283 282 281 282 282 284 286 286 286 286 286 286 287 287 286
289 287 287 286 285 285 285 286 286 286 286 285 284 283 282 282 281 282 282 282 282 280 281 281 280 280 280 281 281 281 282 282 283 285 286 285 285 285 285 285 285 285 284
287 286 286 285 284 284 284 283 283 285 284 284 284 283 282 281 282 282 281 281 281 280 280 279 279 279 279 281 280 278 279 281 281 282 283 284 284 283 284 285 284 283 282
287 286 284 284 283 282 282 283 283 283 283 282 282 282 282 283 285 283 280 280 280 280 280 279 278 278 278 279 278 280 278 279 280 281 281 280 279 280 280 282 281 282 282
285 284 283 282 282 281 285 287 284 282 282 281 281 281 281 282 284 284 283 284 282 281 280 280 279 278 279 279 279 279 278 277 276 281 278 278 280 279 279 279 282 282 282
284 283 282 282 281 281 286 287 286 282 281 281 281 281 281 282 281 281 284 284 284 284 284 281 279 280 279 279 280 279 279 278 277 279 278 276 279 277 278 278 281 281 281
283 282 282 282 281 281 286 287 285 281 281 281 281 281 282 280 280 280 280 281 281 282 282 282 281 280 280 281 282 281 279 278 278 279 279 273 276 275 277 277 280 280 280
283 283 283 282 282 281 286 287 284 282 281 281 281 283 283 281 283 283 279 278 279 280 283 285 285 286 286 286 285 281 279 278 277 277 279 276 276 274 274 274 276 278 278
283 282 282 282 282 281 286 286 283 282 280 280 282 283 283 284 285 285 281 279 278 279 279 279 279 280 282 281 283 280 279 276 276 275 275 273 273 273 270 274 274 273 273
Wind_Speed
8 6 6 7 5 5 6 8 9 8 8 9 9 9 9 10 10 6 6 17 16 18 18 18 18 19 20 20 20 20 21 21 21 21 22 23 23 23 23 23 23 23 24
9 9 7 7 8 8 7 6 8 8 7 8 9 9 9 8 9 9 7 10 17 16 16 16 18 18 18 19 19 19 20 20 20 20 20 21 21 22 22 23 23 24 25
10 11 8 8 8 7 8 8 9 8 8 7 10 8 7 8 7 7 8 7 9 15 16 16 16 16 17 18 18 18 19 19 19 19 20 20 21 21 22 23 24 25 25
13 12 9 8 8 8 7 7 7 8 8 7 8 6 6 6 7 7 5 5 6 7 12 14 15 15 15 16 16 17 18 18 19 19 20 20 21 21 23 23 24 25 25
14 11 9 9 11 9 9 9 7 8 8 8 8 7 6 5 5 6 7 7 6 7 6 12 15 14 14 14 15 16 17 18 18 18 19 19 20 21 23 24 24 24 25
12 10 9 11 11 9 9 8 9 7 7 9 9 7 5 5 4 5 6 6 6 6 5 4 5 7 13 14 15 15 16 16 16 17 17 19 20 21 22 22 23 23 24
10 11 9 12 10 11 12 12 11 11 7 9 9 6 5 4 4 4 4 5 6 6 5 4 2 1 4 13 15 15 14 15 15 16 17 19 19 20 20 21 21 23 24
11 11 12 12 13 10 10 13 14 10 3 9 6 6 5 3 3 4 3 4 5 4 4 4 3 3 3 4 8 13 13 14 14 15 16 17 18 18 19 20 21 23 23
9 10 12 12 14 12 12 16 15 12 9 10 12 4 5 5 7 4 5 4 5 4 4 4 3 3 4 4 6 7 11 12 13 14 14 15 16 17 18 20 21 22 23
8 9 12 13 14 12 13 13 13 11 9 12 8 4 1 6 5 5 5 5 5 6 6 4 4 3 3 3 5 7 9 10 10 11 12 13 15 16 18 19 20 21 23
7 8 9 13 12 9 12 14 13 10 8 10 8 7 3 4 2 4 5 6 4 6 5 5 4 4 3 2 2 5 8 8 8 9 11 12 14 15 17 19 20 22 23
5 6 8 10 11 10 12 12 12 10 9 9 8 9 6 5 5 4 3 8 7 7 6 5 5 4 3 3 4 2 3 6 7 8 9 11 12 14 16 18 20 22 23
6 9 9 10 9 11 11 11 11 12 10 9 12 8 4 2 3 3 5 5 5 4 4 5 5 4 4 2 3 0 3 3 6 8 9 10 12 13 15 18 19 21 23
9 12 11 10 11 12 12 12 9 8 8 6 10 7 6 4 3 3 5 6 4 2 4 5 6 4 4 3 3 3 6 4 6 9 9 10 12 13 15 17 19 21 23
9 12 13 11 11 11 11 11 8 10 10 9 9 8 6 4 3 3 3 4 5 4 6 6 4 6 4 4 4 4 4 6 8 9 10 11 12 14 15 17 19 21 24
9 10 11 11 11 12 10 10 7 9 11 8 7 10 7 6 6 4 4 3 3 3 4 3 4 4 4 3 4 4 6 4 12 10 10 11 13 15 16 18 19 22 24
10 9 9 11 13 12 11 10 9 10 11 10 10 11 10 9 6 5 4 3 3 1 2 3 3 4 4 5 5 6 6 5 5 10 10 12 14 16 18 18 20 23 24
7 10 10 11 10 10 12 12 12 12 13 13 12 12 12 8 9 7 5 4 3 2 2 4 3 3 5 5 4 4 4 4 5 9 13 13 15 17 18 18 21 23 24
10 9 10 11 10 11 11 8 10 11 12 13 14 14 13 12 9 6 6 5 4 3 3 2 3 2 3 3 4 4 5 5 5 11 13 14 16 16 17 19 21 22 22
12 11 11 11 11 11 9 8 8 9 11 11 11 11 13 12 11 9 7 6 5 5 3 2 3 3 3 3 2 3 4 4 4 4 9 12 11 14 17 19 22 21 21
10 11 11 9 9 10 10 13 11 10 11 11 10 11 9 9 12 11 8 7 7 5 5 4 3 3 3 3 3 2 4 5 6 5 7 3 4 6 8 15 15 19 21
9 9 10 11 11 8 17 18 14 11 10 12 11 9 9 10 12 13 11 11 10 8 7 4 4 5 6 3 3 4 4 5 5 1 3 8 5 8 8 6 17 21 22
9 10 10 10 11 10 21 20 16 8 10 10 11 11 8 5 8 8 11 14 11 13 9 5 6 7 4 4 3 5 6 7 8 8 6 12 6 10 8 7 18 21 26
10 10 10 10 9 9 23 22 17 11 8 9 10 11 11 10 8 8 8 9 8 8 9 7 9 8 6 4 5 6 6 8 9 9 5 10 6 8 8 6 18 24 17
8 8 8 9 9 8 23 22 17 10 9 9 8 10 10 9 13 16 9 8 7 8 10 16 18 17 17 17 15 6 7 8 10 8 4 5 6 7 9 9 7 15 21
7 6 6 7 8 8 22 24 13 8 8 8 8 6 11 10 17 18 10 7 7 8 6 5 4 9 11 8 12 7 5 8 8 8 2 3 4 5 6 9 6 8 8
Wind_Direction
168 150 132 154 159 147 144 136 133 115 103 99 94 91 88 90 90 83 59 30 56 73 79 81 82 80 74 72 69 67 64 60 56 53 50 48 46 44 41 39 37 34 31
173 169 155 157 159 160 133 142 127 120 112 106 99 97 96 92 96 96 80 50 49 68 77 80 78 78 77 73 70 67 65 61 57 54 51 49 48 44 40 37 34 31 29
173 169 168 172 158 149 135 116 122 124 111 107 105 100 98 100 101 95 99 91 66 49 70 73 75 77 76 74 71 67 63 60 57 53 51 47 46 42 40 36 32 29 26
177 178 170 161 151 141 132 135 141 133 124 124 123 112 104 100 101 103 96 96 94 82 61 68 70 71 73 74 73 69 63 58 55 52 48 44 42 39 36 32 29 25 22
186 171 170 159 148 147 147 136 144 145 137 122 121 116 111 108 108 102 103 97 93 93 87 65 56 59 65 68 67 65 62 57 53 49 46 42 39 35 32 28 23 19 17
185 171 163 155 155 153 149 146 138 145 144 131 123 115 109 109 117 117 115 107 102 100 95 88 74 50 59 62 61 59 58 56 53 47 43 39 35 31 27 22 17 14 11
180 169 161 157 161 168 166 156 141 148 146 136 120 111 112 123 138 139 132 121 115 100 99 94 93 111 81 59 54 51 51 51 48 43 37 33 29 25 20 15 11 8 6
177 172 163 166 164 157 156 150 152 146 145 172 135 134 161 167 175 170 154 140 136 125 114 101 101 86 80 81 59 49 44 43 41 37 33 27 22 17 12 7 5 3 1
174 172 170 169 164 163 173 164 169 169 159 195 171 151 159 195 143 175 179 174 164 152 135 133 120 114 90 72 58 43 41 38 34 30 26 20 15 8 4 1 357 355 353
181 172 174 173 174 168 178 175 177 174 165 178 177 170 352 125 184 164 186 192 184 176 171 171 154 128 112 121 112 53 37 33 27 23 18 12 6 1 357 354 349 347 346
186 175 177 168 176 179 175 177 175 183 189 174 179 164 184 188 222 138 160 179 194 194 180 181 174 151 164 146 97 72 31 20 16 13 8 5 358 353 349 345 341 341 340
175 174 176 180 175 179 175 178 176 192 179 186 188 170 171 170 186 173 133 157 182 186 182 172 190 186 171 143 120 36 10 358 356 353 355 354 345 343 341 338 335 334 334
183 186 177 188 180 178 178 170 175 193 189 189 185 175 176 179 153 173 130 160 170 142 178 192 198 173 181 180 117 101 277 306 328 330 335 332 334 335 333 331 328 327 329
193 175 180 188 189 184 179 173 178 184 185 180 175 161 160 162 164 160 146 151 142 152 182 165 183 181 174 183 83 230 255 243 294 312 308 318 328 328 325 324 321 322 325
186 184 179 181 184 182 179 174 174 182 185 181 172 159 152 139 112 111 117 178 148 156 192 185 146 171 182 169 213 234 273 272 285 290 295 305 317 319 318 317 314 319 324
173 169 176 180 184 179 170 173 174 170 175 170 151 148 135 139 123 122 121 121 97 129 139 112 189 142 172 196 219 213 261 277 270 274 279 295 305 311 312 309 310 317 322
164 170 176 182 187 175 169 174 175 171 168 156 149 147 139 139 135 129 118 110 100 105 118 56 69 136 178 217 209 210 231 253 273 278 286 292 299 307 308 302 310 313 318
154 176 182 182 183 179 173 175 175 174 165 159 153 144 146 143 137 138 132 131 132 100 111 135 152 174 206 208 233 255 245 236 254 269 285 292 296 299 296 295 303 309 311
170 167 174 180 179 182 176 173 175 169 166 163 157 152 150 146 142 143 144 142 130 145 109 126 153 178 215 210 235 247 251 255 255 260 274 286 290 289 286 291 298 304 306
169 177 183 185 183 179 174 159 163 166 162 157 154 152 153 155 151 152 153 147 150 143 131 169 203 218 212 194 181 259 273 239 278 280 275 273 280 275 277 290 297 298 302
175 177 175 179 174 175 176 167 166 165 155 148 143 141 151 147 149 158 150 158 169 148 166 191 211 219 222 217 214 220 269 283 278 265 282 285 269 274 280 287 288 295 304
168 166 178 177 178 187 183 178 163 160 153 149 148 143 140 142 156 165 166 189 183 170 183 184 209 222 237 221 217 237 261 276 299 242 307 288 278 281 274 275 286 300 303
165 177 179 177 185 178 178 177 162 157 150 155 152 151 142 147 152 158 190 222 208 207 205 187 227 232 251 224 236 263 259 262 267 285 300 285 281 280 275 277 300 298 306
175 178 184 184 178 179 180 179 158 150 149 155 161 157 152 156 174 161 179 207 207 206 217 222 233 240 240 261 254 256 269 277 278 272 243 269 282 277 291 286 295 300 298
173 177 175 174 176 170 182 178 157 150 152 155 149 157 151 162 185 187 198 202 205 222 222 229 242 248 255 263 266 274 267 274 284 286 249 260 282 292 293 294 272 312 314
161 143 145 159 155 157 177 180 153 151 150 150 161 162 169 178 188 195 202 196 223 227 202 225 246 259 264 263 269 260 274 272 280 287 54 303 300 313 288 298 306 315 314